Change the Weather History Date:

Sunday, April 28, 2013

  Actual Average Record
Temperature  
Mean Temperature 71 °F -  
Max Temperature 81 °F 79 °F 82 °F (1990)
Min Temperature 61 °F 62 °F 58 °F (1952)
Cooling Degree Days 6    
Growing Degree Days 21 (Base 50)    
Moisture  
Dew Point 63 °F    
Average Humidity 74    
Maximum Humidity 93    
Minimum Humidity 52    
Precipitation  
Precipitation 0.00 in - - ()
Sea Level Pressure  
Sea Level Pressure 30.01 in    
Wind  
Wind Speed 6 mph (ESE)    
Max Wind Speed 13 mph    
Max Gust Speed -    
Visibility 10 miles    
Events      
Averages and records for this station are not official NWS values.
T = Trace of Precipitation, MM = Missing Value Source: NWS Daily Summary

Daily Weather History Graph

Daily Weather History Graph

Search for Another Location

Airport or City:

Trip Planner

Search our weather history database for the weather conditions in past years. The results will help you decide how hot, cold, wet, or windy it might be!

Date:

Astronomy

Apr. 28, 2013 Rise Set
Actual Time 5:59 AM HST 6:51 PM HST
Civil Twilight 5:36 AM HST 7:14 PM HST
Nautical Twilight 5:09 AM HST 7:41 PM HST
Astronomical Twilight 4:41 AM HST 8:09 PM HST
Moon 10:19 PM HST (4/28) 8:41 AM HST (4/28)
Length of Visible Light 13h 38m
Length of Day
12h 52m
Waning Gibbous, 87% of the Moon is Illuminated
Apr 28
Waning Gibbous
May 2
Last Quarter
May 9
New
May 17
First Quarter
May 24
Full

Hourly Weather History & Observations

Time (HST) Temp. Heat Index Dew Point Humidity Pressure Visibility Wind Dir Wind Speed Gust Speed Precip Events Conditions
12:56 AM 64.9 °F - 61.9 °F 90% 30.03 in 10.0 mi ENE 4.6 mph - N/A   Clear
1:56 AM 63.9 °F - 61.9 °F 93% 30.02 in 10.0 mi East 6.9 mph - N/A   Clear
2:56 AM 63.9 °F - 59.9 °F 87% 30.00 in 10.0 mi ENE 4.6 mph - N/A   Clear
3:56 AM 64.9 °F - 59.9 °F 84% 30.00 in 10.0 mi ENE 3.5 mph - N/A   Clear
4:56 AM 61.9 °F - 59.0 °F 90% 30.01 in 10.0 mi ENE 5.8 mph - N/A   Clear
5:56 AM 63.0 °F - 59.0 °F 87% 30.02 in 10.0 mi ENE 3.5 mph - N/A   Clear
6:56 AM 65.8 °F - 61.0 °F 84% 30.04 in 10.0 mi ESE 4.6 mph - N/A   Clear
7:56 AM 73.9 °F - 63.0 °F 68% 30.04 in 10.0 mi Variable 3.5 mph - N/A   Clear
8:56 AM 79.0 °F - 63.0 °F 58% 30.04 in 10.0 mi Calm Calm - N/A   Clear
9:56 AM 79.9 °F - 61.0 °F 52% 30.03 in 10.0 mi Variable 5.8 mph - N/A   Clear
10:56 AM 79.0 °F - 61.9 °F 56% 30.02 in 10.0 mi SSW 10.4 mph - N/A   Clear
11:56 AM 81.0 °F 82.2 °F 63.0 °F 54% 30.01 in 10.0 mi South 10.4 mph - N/A   Clear
12:56 PM 81.9 °F 83.5 °F 64.9 °F 56% 30.00 in 10.0 mi SSW 10.4 mph - N/A   Clear
1:56 PM 77.9 °F - 63.0 °F 60% 29.99 in 10.0 mi SSW 9.2 mph - N/A   Clear
2:56 PM 79.9 °F - 63.0 °F 56% 29.97 in 10.0 mi SSW 12.7 mph - N/A   Clear
3:56 PM 79.0 °F - 63.9 °F 60% 29.96 in 10.0 mi South 12.7 mph - N/A   Clear
4:56 PM 77.0 °F - 64.4 °F 65% 30.02 in 10.0 mi SSW 10.4 mph - N/A   Partly Cloudy
5:56 PM 73.9 °F - 64.9 °F 73% 29.98 in 10.0 mi Variable 4.6 mph - N/A   Partly Cloudy
6:56 PM 72.0 °F - 63.9 °F 76% 29.99 in 10.0 mi ESE 4.6 mph - N/A   Clear
7:56 PM 70.0 °F - 63.9 °F 81% 30.00 in 10.0 mi ESE 4.6 mph - N/A   Clear
8:56 PM 68.9 °F - 63.0 °F 81% 30.01 in 10.0 mi East 5.8 mph - N/A   Clear
9:56 PM 66.9 °F - 63.9 °F 90% 30.01 in 10.0 mi East 8.1 mph - N/A   Clear
10:56 PM 68.0 °F - 65.8 °F 93% 30.01 in 10.0 mi East 6.9 mph - N/A   Clear
11:56 PM 70.0 °F - 68.0 °F 93% 30.00 in 10.0 mi East 5.8 mph - N/A   Mostly Cloudy